WHDW 03-06

operational
NORAD ID: 63692 Int'l Des: 2025-086 Owner: ZXW Country: CN
LEOCIRCULARPOLARONEWEB_TYPE

About WHDW 03-06

Description loading...

Live Position

Loading 3D Globe...

Upcoming Passes

Altitude History

Altitude vs Time

uPlot chart will show altitude changes over time

Two-Line Element Set

1 63692U 25086F 26061.16933270 .00000020 00000-0 11661-4 0 9994
2 63692 86.5105 349.0852 0001618 91.4542 268.6778 13.24421433 40695
Epoch: Mar 2, 2026 • Age: 30 hours

Current Status

Altitude 1179.8 km
Velocity 7.27 km/s
Sub-Earth Point 77.12°N, 115.51°E
Launch Date Apr 28, 2025
Age 0.8 years
Type other

Technical Details

Classification Payload
Mass 800.00 kg
Dry Mass 800.00 kg
Total Mass 800.00 kg
Length 3.00 m
Diameter 1.00 m
Span 10.00 m
Shape Box + 2 Pan
Manufacturer CAST
Bus Type Xingwang CL
Phase Status In Orbit
Owner/State ZXW/CN

Large Constellations

Loading constellations...